Wind_Speed
7 7 8 8 8 8 8 8 8 8 8 8 8 7 7 6 5 4 4 3 3 3 2 2 2 3 4 5 6 7 8 8 8 9 10 10 10 10 9 9 10 10 11
5 6 6 7 7 7 7 7 7 7 8 8 7 7 7 6 5 5 4 4 4 4 3 3 3 4 5 6 7 7 8 9 9 9 11 11 11 11 11 10 10 10 11
5 5 6 6 6 6 6 6 6 7 8 7 7 6 7 6 6 6 5 5 5 5 4 4 4 5 5 6 7 8 8 9 9 9 10 11 12 12 12 12 11 11 11
6 7 6 6 6 6 7 6 6 6 7 8 7 6 7 7 7 6 6 6 6 5 5 5 5 5 5 6 6 8 8 9 9 10 10 11 12 12 12 12 12 12 12
8 8 8 7 7 7 7 8 7 7 7 7 7 7 7 7 7 7 7 7 6 6 6 6 6 6 6 7 7 7 7 7 8 8 9 9 10 11 11 11 12 12 13
10 10 9 9 8 8 9 9 9 9 9 9 8 8 8 8 8 7 7 7 7 7 7 7 8 8 8 8 8 8 8 8 8 9 9 10 10 11 11 11 12 12 12
13 13 12 11 10 10 10 10 10 10 10 10 10 9 9 9 9 9 8 8 8 9 9 9 9 9 9 9 9 9 9 9 9 9 9 10 11 11 12 12 12 12 13
13 14 14 13 12 12 12 12 12 12 11 11 11 10 10 10 10 10 10 10 10 10 11 11 11 11 11 11 10 10 10 10 10 11 11 11 11 12 12 12 12 13 13
15 15 15 15 15 15 14 14 14 13 13 13 12 13 12 11 12 11 12 11 11 11 11 12 12 12 12 12 12 12 12 12 12 12 13 13 13 13 13 13 13 13 14
17 17 17 17 17 17 16 16 16 15 14 14 14 14 14 14 14 13 13 13 13 13 13 13 13 13 13 14 15 15 15 15 14 15 15 15 15 15 15 15 15 15 16
19 19 18 18 18 18 18 18 18 17 17 16 16 16 17 17 16 15 15 14 14 15 14 14 15 14 15 16 17 17 17 17 17 17 17 17 17 17 17 17 17 17 17
20 20 20 20 20 20 20 20 20 19 19 18 18 19 19 19 19 17 16 16 17 17 16 16 16 17 17 18 18 18 18 18 18 18 19 19 19 20 19 19 20 20 19
22 21 21 21 22 22 22 22 22 20 20 20 20 20 21 21 20 19 19 19 19 19 19 19 19 19 19 19 19 19 20 20 20 20 20 21 21 22 22 22 22 22 22
23 22 22 22 22 23 24 23 23 22 22 21 21 22 22 22 21 21 21 21 22 22 21 22 22 21 21 21 20 21 22 22 22 22 22 22 22 22 23 23 23 23 24
23 23 23 24 23 23 23 24 24 24 24 24 23 24 24 23 23 23 23 23 24 24 24 24 23 23 23 23 22 23 24 24 24 24 23 23 23 24 24 24 24 25 25
23 23 23 24 24 24 24 24 25 25 25 25 25 25 25 25 25 25 25 25 26 26 25 25 24 24 24 24 24 24 25 25 26 26 25 26 26 26 26 26 26 26 26
25 25 24 24 23 24 24 25 25 25 26 27 26 27 27 27 28 27 27 27 27 26 26 25 25 25 24 25 25 25 26 26 26 26 26 27 27 27 27 27 27 27 28
26 26 26 26 25 25 26 26 27 28 29 29 29 29 29 29 29 29 28 27 27 27 27 26 27 26 26 26 27 27 27 26 26 27 27 28 28 28 28 29 29 29 29
28 27 28 28 28 28 28 28 29 30 32 31 31 31 31 31 31 31 30 29 29 28 28 28 28 27 27 27 28 28 29 28 28 28 28 29 29 30 30 31 31 31 31
30 30 30 30 30 30 30 30 30 31 31 32 32 32 32 32 32 32 31 30 30 30 30 29 29 29 29 29 30 30 31 30 29 29 29 30 31 32 32 33 33 33 32
31 32 32 31 31 30 31 31 31 32 32 32 33 34 34 34 33 33 32 33 32 32 31 31 30 30 31 32 32 32 32 31 31 32 32 32 33 33 34 34 34 34 35
31 32 32 31 31 31 32 32 33 33 33 34 34 35 34 34 33 34 33 34 33 33 33 32 32 31 32 33 34 34 33 34 34 34 35 35 35 36 36 35 35 35 36
33 33 33 32 32 33 33 34 34 34 35 35 34 34 34 34 34 34 33 33 34 34 34 34 34 34 34 35 35 35 35 35 36 36 37 37 36 36 35 35 35 36 36
34 34 34 34 35 35 35 35 36 36 37 36 36 35 35 35 35 35 34 34 35 35 35 35 35 35 35 36 36 35 36 36 36 36 36 36 36 36 37 37 37 37 37
33 34 34 34 34 35 36 37 37 37 38 37 36 36 36 35 36 36 35 35 35 35 36 36 36 36 36 36 36 36 36 36 36 36 37 37 37 37 38 38 38 38 38
34 35 35 35 36 36 37 37 37 38 38 38 38 37 35 36 36 36 36 36 36 37 37 38 38 37 37 37 36 36 36 37 36 36 36 37 37 37 37 38 38 37 37
Wind_Direction
11 18 20 23 31 34 37 40 36 33 33 33 32 32 30 30 30 30 23 17 3 348 325 276 278 272 261 250 247 244 240 242 244 243 242 243 246 246 249 252 255 256 258
357 1 1 6 12 17 20 23 23 20 18 17 24 27 28 25 19 9 1 354 350 344 330 299 287 281 274 266 258 257 254 249 250 250 247 246 245 248 248 254 257 258 260
331 333 339 347 355 358 358 0 6 9 9 6 8 14 17 20 14 9 3 355 348 340 334 319 302 287 278 274 264 261 263 260 257 257 254 250 249 253 253 257 261 263 264
305 309 317 321 328 332 335 335 339 345 350 352 355 360 3 5 4 1 360 354 345 336 333 326 317 302 289 285 280 272 267 264 263 260 258 256 254 254 254 257 261 263 265
291 296 303 306 312 315 317 320 320 321 329 333 340 342 343 345 347 344 343 342 337 327 321 316 311 307 296 289 285 282 277 274 271 266 265 264 258 261 262 264 264 265 265
279 284 291 293 298 303 307 308 308 307 313 318 322 325 327 330 329 326 325 327 326 322 316 309 304 305 301 293 289 284 281 276 274 271 269 267 266 266 265 267 269 269 268
275 278 280 280 286 291 294 297 300 299 303 309 309 314 320 321 321 317 317 317 317 316 312 306 301 300 300 298 295 289 284 279 274 272 274 273 271 270 269 271 275 274 273
270 274 274 275 277 283 288 290 293 295 295 299 302 306 311 313 313 312 313 313 310 309 308 302 297 294 293 293 290 289 285 280 276 275 275 276 275 273 272 274 278 280 279
267 271 269 271 273 277 281 286 287 288 290 292 294 298 304 309 304 300 302 303 303 302 303 300 295 293 291 289 289 290 285 284 280 278 276 275 276 276 276 274 275 278 279
267 270 269 267 269 273 276 280 282 284 288 288 288 292 296 301 306 299 294 296 298 297 295 296 295 294 290 285 286 287 285 283 281 280 278 276 276 277 279 278 278 278 279
266 268 269 267 267 269 273 276 277 279 283 286 286 289 291 293 300 298 294 294 294 295 293 292 292 291 288 287 287 286 284 281 279 281 279 277 277 276 277 279 281 281 280
265 265 264 263 266 267 269 272 274 276 280 283 286 288 288 292 295 297 294 293 291 291 291 290 289 289 287 286 286 286 284 281 280 281 280 278 277 277 277 278 279 280 279
262 262 260 260 263 265 267 268 271 273 278 282 286 288 289 291 292 292 291 290 289 289 288 288 288 287 286 286 285 283 282 280 278 279 280 278 277 277 277 278 279 278 277
260 261 262 263 263 264 264 266 268 271 274 278 283 286 287 289 289 289 288 287 287 288 288 287 287 285 283 283 282 280 280 279 278 276 276 276 276 276 276 277 279 278 278
259 259 261 262 262 265 265 264 267 270 274 278 282 284 286 287 287 286 286 286 286 287 286 286 286 283 282 281 280 279 279 278 277 276 275 274 274 276 277 278 280 280 278
257 257 258 259 261 263 263 263 268 271 273 277 280 281 283 284 284 284 285 285 285 285 286 285 283 282 281 279 277 277 278 279 277 275 273 273 273 274 276 277 278 279 279
255 254 257 259 262 263 263 265 267 268 271 274 277 279 280 281 282 283 283 283 282 282 282 283 282 281 280 279 278 275 277 278 278 276 273 271 272 274 275 276 276 277 278
253 254 257 260 262 264 264 266 268 268 271 272 274 276 278 279 280 281 281 281 281 281 281 280 281 281 282 282 281 279 276 275 276 276 274 271 270 273 275 276 276 278 279
256 255 258 260 262 264 264 267 270 270 271 271 272 274 275 276 278 278 279 279 280 280 281 280 280 280 281 280 280 280 277 275 275 275 274 273 272 272 274 276 277 277 279
256 256 257 259 261 263 265 268 271 271 271 270 270 272 273 274 275 276 277 278 281 282 283 282 282 281 280 279 279 278 277 275 274 274 274 274 274 273 275 277 277 277 278
259 260 261 260 261 263 266 269 272 273 271 272 272 272 272 274 275 276 277 278 279 282 283 283 285 283 280 279 279 278 276 274 273 273 272 273 274 274 275 276 277 277 277
260 262 263 264 263 264 266 270 272 273 272 270 271 271 272 274 276 277 278 278 280 282 284 283 283 284 283 281 280 278 276 275 275 274 272 273 274 274 275 276 276 277 277
259 261 261 263 265 267 268 269 271 271 272 272 272 271 273 272 274 276 277 278 280 281 282 283 282 282 282 282 281 280 278 277 276 275 274 274 273 273 274 275 276 277 278
258 260 262 264 265 266 267 268 271 272 272 273 273 273 273 273 274 275 277 279 281 282 281 281 281 282 282 282 281 280 278 277 276 276 275 273 272 272 273 275 275 275 276
260 262 263 265 266 267 268 269 270 271 273 273 273 273 273 274 274 275 276 278 280 281 281 281 281 282 282 284 282 280 279 278 277 275 273 272 273 273 274 275 274 274 274
261 262 263 264 266 268 269 270 271 272 273 274 274 274 273 274 274 274 275 277 278 280 281 281 280 279 280 282 281 278 277 276 275 275 274 274 274 273 274 275 274 274 274
Height
5913 5912 5910 5909 5907 5906 5905 5903 5902 5901 5899 5898 5897 5896 5895 5894 5893 5892 5891 5890 5890 5889 5889 5889 5889 5889 5889 5889 5889 5889 5889 5889 5889 5890 5890 5890 5890 5890 5890 5891 5891 5891 5891
5913 5912 5911 5910 5908 5907 5906 5905 5903 5902 5900 5899 5898 5896 5895 5894 5893 5892 5891 5890 5890 5889 5889 5889 5888 5888 5888 5888 5888 5888 5888 5887 5888 5888 5888 5888 5889 5888 5888 5888 5888 5889 5888
5913 5912 5911 5910 5909 5907 5906 5905 5904 5902 5901 5899 5898 5897 5896 5894 5893 5892 5891 5891 5890 5889 5888 5888 5887 5887 5887 5887 5887 5886 5886 5886 5886 5886 5886 5886 5886 5886 5886 5886 5886 5886 5886
5913 5912 5911 5910 5909 5907 5906 5905 5904 5902 5901 5899 5898 5897 5896 5894 5893 5892 5891 5890 5890 5889 5888 5887 5886 5886 5886 5885 5885 5885 5884 5884 5884 5883 5883 5884 5884 5884 5883 5883 5883 5883 5883
5911 5911 5910 5909 5908 5907 5905 5904 5903 5902 5900 5899 5898 5896 5895 5894 5893 5892 5891 5890 5889 5888 5887 5886 5885 5885 5884 5884 5884 5883 5882 5882 5882 5881 5881 5881 5881 5881 5881 5881 5880 5880 5880
5909 5909 5908 5907 5907 5906 5904 5903 5902 5900 5899 5898 5897 5896 5895 5893 5892 5891 5890 5889 5888 5887 5886 5885 5884 5883 5883 5882 5882 5881 5880 5880 5880 5879 5879 5879 5879 5878 5878 5877 5877 5877 5877
5907 5906 5906 5905 5904 5904 5903 5901 5900 5899 5898 5897 5895 5894 5893 5892 5890 5889 5888 5887 5886 5885 5884 5883 5882 5882 5881 5880 5880 5879 5878 5878 5877 5877 5877 5876 5876 5876 5875 5875 5874 5873 5873
5904 5904 5903 5902 5902 5901 5900 5899 5898 5897 5895 5894 5893 5893 5892 5890 5889 5888 5887 5885 5884 5883 5882 5881 5880 5879 5879 5878 5877 5877 5875 5875 5874 5874 5874 5873 5873 5872 5872 5872 5871 5871 5870
5900 5900 5900 5899 5899 5898 5897 5897 5896 5895 5893 5892 5891 5890 5889 5888 5887 5885 5884 5883 5882 5880 5879 5878 5877 5876 5876 5875 5874 5873 5873 5872 5871 5871 5871 5870 5870 5869 5868 5868 5868 5868 5867
5896 5896 5896 5895 5895 5895 5894 5893 5893 5892 5891 5890 5889 5887 5886 5885 5884 5882 5881 5880 5879 5878 5876 5875 5874 5873 5872 5871 5871 5870 5869 5869 5868 5867 5867 5867 5866 5865 5865 5864 5864 5863 5863
5891 5891 5891 5891 5891 5890 5890 5890 5889 5888 5887 5886 5885 5884 5883 5882 5880 5879 5878 5877 5876 5875 5873 5872 5871 5869 5868 5867 5867 5866 5865 5865 5864 5863 5863 5862 5862 5861 5860 5860 5859 5859 5858
5886 5886 5885 5886 5886 5886 5885 5885 5885 5884 5883 5882 5881 5880 5879 5878 5876 5875 5874 5873 5872 5871 5869 5868 5867 5865 5864 5863 5862 5861 5860 5860 5859 5858 5858 5857 5857 5856 5856 5855 5854 5854 5853
5880 5880 5880 5880 5880 5880 5880 5880 5879 5878 5878 5878 5877 5876 5875 5873 5872 5871 5869 5868 5867 5866 5865 5863 5862 5861 5859 5858 5857 5856 5855 5854 5854 5853 5852 5852 5851 5851 5850 5849 5848 5848 5847
5874 5874 5875 5875 5875 5875 5875 5874 5874 5874 5873 5873 5872 5871 5870 5868 5867 5865 5864 5863 5862 5861 5859 5858 5856 5855 5853 5852 5851 5850 5850 5849 5848 5847 5846 5846 5845 5845 5844 5843 5843 5842 5841
5867 5868 5869 5869 5869 5869 5869 5869 5868 5868 5867 5867 5866 5865 5864 5863 5861 5860 5859 5857 5856 5854 5853 5851 5850 5848 5847 5846 5845 5844 5843 5842 5841 5841 5840 5840 5839 5839 5838 5837 5836 5835 5835
5860 5861 5862 5862 5863 5863 5863 5863 5862 5862 5861 5860 5860 5859 5858 5857 5855 5854 5853 5851 5849 5847 5846 5844 5843 5841 5840 5839 5838 5836 5836 5835 5834 5834 5833 5833 5833 5832 5831 5831 5830 5829 5828
5853 5854 5855 5855 5856 5856 5856 5856 5856 5855 5854 5854 5853 5852 5851 5850 5848 5847 5846 5844 5842 5840 5839 5837 5836 5834 5833 5832 5831 5830 5829 5828 5827 5826 5825 5825 5825 5824 5824 5823 5822 5821 5820
5845 5847 5848 5848 5848 5849 5849 5848 5848 5847 5847 5846 5845 5845 5843 5842 5840 5839 5838 5837 5835 5833 5831 5830 5829 5827 5826 5825 5824 5822 5821 5820 5819 5819 5818 5817 5817 5817 5816 5815 5814 5813 5812
5838 5839 5840 5840 5841 5841 5841 5840 5840 5839 5838 5838 5837 5836 5835 5833 5832 5831 5830 5829 5827 5826 5824 5822 5821 5820 5818 5817 5816 5815 5813 5812 5812 5811 5810 5809 5809 5808 5807 5806 5805 5804 5803
5830 5831 5832 5832 5832 5832 5832 5832 5831 5831 5830 5828 5828 5827 5826 5824 5823 5822 5821 5820 5819 5817 5816 5815 5813 5811 5810 5809 5807 5806 5804 5803 5803 5802 5801 5800 5800 5799 5798 5797 5796 5795 5794
5822 5822 5822 5822 5823 5824 5824 5823 5823 5822 5821 5819 5818 5817 5817 5815 5814 5813 5812 5811 5810 5809 5808 5806 5804 5802 5801 5800 5798 5796 5795 5794 5793 5792 5791 5791 5790 5789 5788 5787 5786 5785 5784
5813 5813 5813 5813 5813 5814 5814 5814 5813 5812 5810 5809 5808 5807 5807 5805 5804 5803 5802 5801 5800 5799 5797 5796 5794 5792 5791 5790 5788 5787 5785 5784 5783 5782 5781 5780 5780 5779 5778 5777 5776 5775 5774
5804 5804 5804 5805 5805 5805 5804 5804 5803 5801 5800 5798 5797 5796 5796 5795 5794 5793 5792 5791 5790 5788 5787 5785 5784 5782 5781 5779 5778 5776 5774 5773 5772 5771 5770 5769 5768 5768 5767 5766 5765 5764 5763
5794 5794 5795 5795 5795 5794 5794 5793 5792 5791 5790 5789 5788 5787 5786 5785 5784 5783 5782 5781 5780 5778 5776 5775 5773 5771 5770 5768 5767 5765 5763 5761 5760 5759 5758 5758 5757 5756 5756 5755 5754 5753 5752
5784 5785 5785 5785 5784 5784 5783 5783 5781 5780 5779 5778 5777 5776 5775 5775 5773 5772 5771 5770 5769 5767 5765 5764 5762 5761 5760 5758 5755 5753 5752 5751 5749 5747 5747 5746 5745 5745 5744 5743 5742 5741 5741
5774 5774 5774 5774 5774 5773 5773 5772 5771 5769 5769 5768 5767 5765 5764 5764 5762 5761 5761 5759 5758 5756 5754 5753 5751 5750 5748 5746 5744 5742 5741 5739 5737 5736 5735 5734 5733 5733 5732 5732 5730 5730 5729